Torna al catalogo

SKYNET 5B

AttivoMilitareGEO
NORAD 32294·PAYLOAD·🇬🇧 United Kingdom

Lanciato Nov 14, 2007 da Guiana Space Centre

Loading…

TLE

AggiornatoSource: Space-Track

Epoca: Sep 14, 2026, 13:55 UTC

1 32294U 07056B   26257.58012770  .00000133  00000-0  00000-0 0  9997
2 32294   5.4722  72.3880 0003698 104.3651  50.7572  1.00269911 69095

Traccia SKYNET 5B in tempo reale con AllMySat

Download on the App Store